Regional Weather Roundup
Issued by NWS

Home | Current Version | Previous Version | Graphics & Text | Print | Product List | Glossary On
Versions: 1 2 3 4 5 6 7 8 9 10 11 12 13 14 15 16 17 18 19 20 21 22 23 24 25 26 27 28 29 30 31 32 33 34 35 36 37 38 39 40 41 42 43 44 45 46 47 48 49 50
000
ASUS43 KLMK 242110
RWRKY
KENTUCKY REGIONAL WEATHER ROUNDUP
NATIONAL WEATHER SERVICE LOUISVILLE KY
400 PM EST SAT FEB 24 2018

NOTE "FAIR" INDICATES FEW OR NO CLOUDS BELOW 12,000 FEET
WITH NO SIGNIFICANT WEATHER AND/OR OBSTRUCTIONS TO VISIBILITY.

KYZ001>023-026-027-061>063-070>075-242200-
WESTERN AND SOUTH CENTRAL KENTUCKY

CITY           SKY/WX    TMP DP  RH WIND       PRES   REMARKS
PADUCAH        RAIN      61  59  93 S10       29.80R FOG
HENDERSON      LGT RAIN  54  54 100 E8        29.85F
OWENSBORO      TSTM      54  54 100 N8G18     29.88R FOG
HOPKINSVILLE   LGT RAIN  67  66  97 S6        29.83F
BOWLING GREEN  CLOUDY    69  66  90 MISG      29.88F
GLASGOW        LGT RAIN N/A N/A N/A S12       29.90S
$$

KYZ024-025-028>034-038-045-046-053-242200-
NORTH CENTRAL KENTUCKY

CITY           SKY/WX    TMP DP  RH WIND       PRES   REMARKS
LOUISVILLE/SDF CLOUDY    55  53  93 SE9       29.89F
LOUISVILLE/LOU CLOUDY    55  54  96 SE9       29.91F
FORT KNOX      LGT RAIN  54  54 100 E8        29.91S
$$

KYZ035>037-039>044-047>052-055>060-089>105-242200-
NORTHEAST KENTUCKY

CITY           SKY/WX    TMP DP  RH WIND       PRES   REMARKS
LEXINGTON      CLOUDY    57  53  86 E6        29.94F
COVINGTON      CLOUDY    55  51  86 E5        29.95R
FRANKFORT      PTSUNNY   54  50  86 E8        29.92F
$$

KYZ054-064>069-076>088-106>120-242200-
SOUTHEAST KENTUCKY

CITY           SKY/WX    TMP DP  RH WIND       PRES   REMARKS
JACKSON        PTSUNNY   67  61  81 S7        29.97F
LONDON         FAIR      67  61  81 S13G20    29.97F
SOMERSET       PTSUNNY   70  59  68 S8        29.96S
MIDDLESBORO    CLOUDY    66  62  88 S8        30.00F
MONTICELLO     FAIR      71  61  70 SW13      29.96S
$$





USA.gov is the U.S. government's official web portal to all federal, state and local government web resources and services.